�������l�o���
Date,Time,MP-1(��Sv/h),MP-2(��Sv/h),MP-3(��Sv/h),MP-4(��Sv/h),MP-5(��Sv/h),MP-6(��Sv/h),MP-7(��Sv/h),MP-8(��Sv/h),����,����(m/s),���J
2017/03/01,00:00,1.056,1.775,1.176,2.060,1.439,0.555,1.019,0.949,�k��,1.9,��
2017/03/01,00:10,1.053,1.778,1.177,2.061,1.440,0.556,1.020,0.947,���k��,1.5,��
2017/03/01,00:20,1.054,1.775,1.175,2.062,1.440,0.555,1.021,0.947,���k��,1.7,��
2017/03/01,00:30,1.052,1.778,1.173,2.062,1.440,0.554,1.020,0.946,�k��,1.7,��
2017/03/01,00:40,1.052,1.775,1.175,2.060,1.440,0.554,1.018,0.949,�k��,2.2,��
2017/03/01,00:50,1.053,1.774,1.174,2.062,1.440,0.555,1.021,0.945,�k��,2.5,��
2017/03/01,01:00,1.053,1.774,1.175,2.061,1.439,0.554,1.021,0.948,�k��,2.3,��
2017/03/01,01:10,1.053,1.775,1.174,2.063,1.436,0.554,1.019,0.946,���k��,2.6,��
2017/03/01,01:20,1.053,1.773,1.176,2.059,1.437,0.554,1.020,0.947,���k��,2.5,��
2017/03/01,01:30,1.053,1.776,1.175,2.059,1.435,0.555,1.019,0.946,�k��,2.0,��
2017/03/01,01:40,1.053,1.776,1.175,2.059,1.437,0.555,1.021,0.946,�k��,1.5,��
2017/03/01,01:50,1.052,1.776,1.174,2.061,1.440,0.555,1.020,0.947,�k��,2.0,��
2017/03/01,02:00,1.053,1.774,1.173,2.059,1.438,0.557,1.019,0.947,�k��,1.7,��
2017/03/01,02:10,1.053,1.775,1.177,2.061,1.439,0.554,1.019,0.948,�k��,2.5,��
2017/03/01,02:20,1.052,1.774,1.177,2.062,1.439,0.552,1.020,0.947,�k��,2.5,��
2017/03/01,02:30,1.052,1.774,1.177,2.061,1.440,0.554,1.020,0.945,�k��,2.6,��
2017/03/01,02:40,1.051,1.775,1.173,2.059,1.439,0.553,1.020,0.947,�k��,2.5,��
2017/03/01,02:50,1.051,1.776,1.173,2.059,1.438,0.554,1.022,0.947,�k��,1.7,��
2017/03/01,03:00,1.051,1.772,1.178,2.060,1.437,0.555,1.019,0.949,�k��,3.4,��
2017/03/01,03:10,1.051,1.774,1.174,2.059,1.439,0.553,1.019,0.947,�k��,3.4,��
2017/03/01,03:20,1.052,1.772,1.174,2.057,1.438,0.553,1.020,0.948,�k��,3.5,��
2017/03/01,03:30,1.050,1.776,1.174,2.060,1.439,0.554,1.019,0.948,�k��,3.3,��
2017/03/01,03:40,1.052,1.777,1.173,2.061,1.437,0.554,1.021,0.947,�k��,2.9,��
2017/03/01,03:50,1.052,1.772,1.175,2.057,1.441,0.555,1.020,0.947,�k��,3.0,��
2017/03/01,04:00,1.049,1.772,1.173,2.059,1.438,0.553,1.021,0.947,�k��,2.5,��
2017/03/01,04:10,1.052,1.772,1.174,2.059,1.437,0.553,1.019,0.945,�k��,3.1,��
2017/03/01,04:20,1.052,1.773,1.172,2.060,1.437,0.554,1.020,0.947,�k��,3.4,��
2017/03/01,04:30,1.050,1.777,1.174,2.058,1.439,0.554,1.022,0.947,�k��,3.9,��
2017/03/01,04:40,1.052,1.776,1.176,2.063,1.437,0.554,1.020,0.946,�k��,3.8,��
2017/03/01,04:50,1.054,1.774,1.174,2.058,1.437,0.553,1.018,0.948,�k��,3.8,��
2017/03/01,05:00,1.052,1.774,1.173,2.059,1.437,0.554,1.020,0.946,�k��,3.3,��
2017/03/01,05:10,1.049,1.772,1.174,2.059,1.437,0.554,1.021,0.947,�k��,3.1,��
2017/03/01,05:20,1.051,1.773,1.174,2.059,1.439,0.553,1.019,0.945,�k��,2.9,��
2017/03/01,05:30,1.051,1.774,1.173,2.059,1.437,0.554,1.019,0.947,���k��,3.0,��
2017/03/01,05:40,1.051,1.774,1.174,2.061,1.439,0.554,1.019,0.948,���k��,2.5,��
2017/03/01,05:50,1.052,1.774,1.174,2.059,1.437,0.553,1.017,0.946,���k��,2.5,��
2017/03/01,06:00,1.052,1.773,1.174,2.059,1.436,0.554,1.020,0.947,���k��,2.6,��
2017/03/01,06:10,1.053,1.775,1.173,2.060,1.436,0.553,1.020,0.947,���k��,2.3,��
2017/03/01,06:20,1.050,1.771,1.174,2.059,1.435,0.552,1.019,0.946,���k��,2.0,��
2017/03/01,06:30,1.049,1.770,1.174,2.059,1.435,0.553,1.020,0.947,���k��,2.6,��
2017/03/01,06:40,1.049,1.773,1.172,2.059,1.436,0.554,1.019,0.947,���k��,2.0,��
2017/03/01,06:50,1.049,1.773,1.174,2.059,1.435,0.553,1.019,0.946,���k��,0.9,��
2017/03/01,07:00,1.053,1.773,1.171,2.058,1.436,0.553,1.020,0.946,�k��,1.2,��
2017/03/01,07:10,1.052,1.774,1.171,2.058,1.436,0.554,1.021,0.948,���k��,1.5,��
2017/03/01,07:20,1.052,1.773,1.174,2.060,1.436,0.555,1.021,0.947,�k��,1.7,��
2017/03/01,07:30,1.050,1.777,1.173,2.061,1.437,0.552,1.021,0.947,�k��,1.7,��
2017/03/01,07:40,1.051,1.775,1.175,2.060,1.439,0.554,1.019,0.948,�k��,1.4,��
2017/03/01,07:50,1.054,1.776,1.173,2.062,1.437,0.555,1.019,0.946,�k��,1.4,��
2017/03/01,08:00,1.050,1.777,1.173,2.061,1.438,0.554,1.021,0.948,�k��,2.2,��
2017/03/01,08:10,1.052,1.773,1.174,2.059,1.438,0.554,1.020,0.950,�k��,2.0,��
2017/03/01,08:20,1.054,1.779,1.177,2.061,1.437,0.554,1.023,0.949,�k�k��,1.9,��
2017/03/01,08:30,1.053,1.778,1.175,2.062,1.438,0.554,1.022,0.947,�k�k��,2.0,��
2017/03/01,08:40,1.052,1.774,1.177,2.062,1.439,0.554,1.023,0.948,�k��,1.4,��
2017/03/01,08:50,1.053,1.774,1.176,2.062,1.438,0.555,1.024,0.950,���k��,1.9,��
2017/03/01,09:00,1.054,1.774,1.178,2.063,1.440,0.554,1.024,0.948,���k��,1.9,��
2017/03/01,09:10,1.052,1.766,1.174,2.063,1.437,0.555,1.022,0.948,�k��,2.2,��
2017/03/01,09:20,1.055,1.742,1.175,2.063,1.440,0.555,1.021,0.949,�k��,1.9,��
2017/03/01,09:30,1.055,1.746,1.175,2.064,1.440,0.554,1.022,0.948,���k��,2.5,��
2017/03/01,09:40,1.055,1.751,1.176,2.064,1.441,0.554,1.022,0.950,��,1.9,��
2017/03/01,09:50,1.054,1.767,1.176,2.066,1.437,0.555,1.022,0.950,���k��,2.6,��
2017/03/01,10:00,1.054,1.765,1.176,2.061,1.439,0.555,1.022,0.948,���k��,2.2,��
2017/03/01,10:10,1.056,1.698,1.175,2.058,1.442,0.556,1.020,0.951,��,3.0,��
2017/03/01,10:20,1.055,1.712,1.178,2.064,1.440,0.554,1.021,0.949,��,3.1,��
2017/03/01,10:30,1.057,1.747,1.178,2.065,1.439,0.555,1.023,0.950,���쓌,2.6,��
2017/03/01,10:40,1.052,1.747,1.176,2.064,1.442,0.556,1.021,0.952,���k��,3.0,��
2017/03/01,10:50,1.056,1.700,1.176,2.062,1.444,0.555,1.021,0.951,��,3.1,��
2017/03/01,11:00,1.056,1.698,1.178,2.066,1.444,0.556,1.019,0.949,��,3.1,��
2017/03/01,11:10,1.057,1.732,1.179,2.067,1.444,0.554,1.020,0.950,���쓌,3.2,��
2017/03/01,11:20,1.055,1.741,1.179,2.065,1.443,0.556,1.021,0.950,��,3.9,��
2017/03/01,11:30,1.056,1.741,1.179,2.063,1.443,0.556,1.020,0.950,��,3.7,��
2017/03/01,11:40,1.057,1.726,1.178,2.068,1.443,0.555,1.020,0.951,���쓌,3.3,��
2017/03/01,11:50,1.057,1.733,1.178,2.064,1.445,0.557,1.022,0.949,��,3.9,��
2017/03/01,12:00,1.058,1.756,1.179,2.069,1.438,0.556,1.022,0.950,���쓌,3.3,��
2017/03/01,12:10,1.057,1.754,1.179,2.070,1.440,0.555,1.021,0.951,���쓌,3.2,��
2017/03/01,12:20,1.057,1.748,1.178,2.067,1.441,0.557,1.023,0.950,�쓌,2.6,��
2017/03/01,12:30,1.059,1.754,1.179,2.066,1.444,0.555,1.021,0.949,�쓌,4.5,��
2017/03/01,12:40,1.059,1.754,1.178,2.066,1.444,0.556,1.020,0.952,�쓌,3.2,��
2017/03/01,12:50,1.059,1.753,1.177,2.070,1.444,0.556,1.022,0.949,���쓌,4.3,��
2017/03/01,13:00,1.058,1.672,1.180,2.069,1.444,0.557,1.023,0.951,�쓌,4.1,��
2017/03/01,13:10,1.059,1.734,1.184,2.069,1.441,0.556,1.022,0.951,���쓌,4.6,��
2017/03/01,13:20,1.061,1.747,1.181,2.069,1.442,0.555,1.021,0.952,���쓌,4.2,��
2017/03/01,13:30,1.060,1.754,1.180,2.069,1.442,0.558,1.022,0.948,���쓌,5.0,��
2017/03/01,13:40,1.058,1.669,1.183,2.069,1.444,0.557,1.023,0.948,�쓌,4.6,��
2017/03/01,13:50,1.055,1.718,1.182,2.070,1.445,0.558,1.023,0.950,�쓌,3.6,��
2017/03/01,14:00,1.052,1.739,1.181,2.067,1.445,0.556,1.022,0.949,�쓌,4.8,��
2017/03/01,14:10,1.057,1.738,1.183,2.068,1.446,0.557,1.021,0.949,�쓌,4.0,��
2017/03/01,14:20,1.060,1.726,1.183,2.068,1.445,0.557,1.022,0.949,�쓌,4.0,��
2017/03/01,14:30,1.059,1.729,1.181,2.068,1.445,0.557,1.021,0.950,�쓌,3.8,��
2017/03/01,14:40,1.060,1.728,1.181,2.068,1.446,0.556,1.022,0.952,�쓌,3.9,��
2017/03/01,14:50,1.060,1.703,1.180,2.068,1.448,0.558,1.021,0.952,��쓌,3.9,��
2017/03/01,15:00,1.060,1.715,1.182,2.068,1.450,0.557,1.021,0.951,�쓌,3.0,��
2017/03/01,15:10,1.059,1.740,1.181,2.070,1.446,0.558,1.021,0.951,�쓌,3.3,��
2017/03/01,15:20,1.057,1.755,1.182,2.066,1.447,0.557,1.021,0.952,�쓌,3.8,��
2017/03/01,15:30,1.061,1.756,1.178,2.067,1.446,0.557,1.024,0.950,�쓌,3.2,��
2017/03/01,15:40,1.059,1.758,1.181,2.067,1.448,0.558,1.022,0.950,�쓌,3.0,��
2017/03/01,15:50,1.060,1.755,1.183,2.063,1.445,0.559,1.022,0.951,�쓌,4.3,��
2017/03/01,16:00,1.060,1.744,1.182,2.069,1.447,0.557,1.023,0.951,�쓌,3.5,��
2017/03/01,16:10,1.059,1.748,1.181,2.066,1.448,0.557,1.023,0.951,�쓌,3.7,��
2017/03/01,16:20,1.061,1.740,1.183,2.067,1.446,0.558,1.021,0.950,��쓌,2.8,��
2017/03/01,16:30,1.059,1.757,1.183,2.067,1.448,0.557,1.023,0.949,�쓌,3.3,��
2017/03/01,16:40,1.059,1.759,1.178,2.066,1.446,0.558,1.023,0.953,�쓌,3.2,��
2017/03/01,16:50,1.060,1.758,1.181,2.068,1.444,0.558,1.022,0.951,�쓌,2.0,��
2017/03/01,17:00,1.061,1.758,1.183,2.067,1.444,0.557,1.025,0.948,���쓌,2.6,��
2017/03/01,17:10,1.061,1.758,1.182,2.070,1.447,0.558,1.024,0.950,���쓌,1.5,��
2017/03/01,17:20,1.059,1.756,1.181,2.067,1.446,0.558,1.024,0.950,�쓌,1.7,��
2017/03/01,17:30,1.060,1.753,1.179,2.068,1.447,0.557,1.024,0.949,���쓌,2.6,��
2017/03/01,17:40,1.059,1.754,1.180,2.065,1.448,0.557,1.024,0.949,�쓌,1.9,��
2017/03/01,17:50,1.060,1.758,1.181,2.065,1.445,0.556,1.024,0.951,���쓌,1.7,��
2017/03/01,18:00,1.062,1.759,1.181,2.067,1.444,0.557,1.023,0.951,���쓌,2.0,��
2017/03/01,18:10,1.060,1.753,1.181,2.067,1.444,0.556,1.024,0.949,�쓌,1.2,��
2017/03/01,18:20,1.058,1.756,1.181,2.065,1.445,0.555,1.023,0.951,��쓌,0.9,��
2017/03/01,18:30,1.059,1.756,1.179,2.066,1.446,0.558,1.026,0.950,��쓌,0.9,��
2017/03/01,18:40,1.058,1.755,1.181,2.064,1.445,0.556,1.023,0.949,��쐼,1.2,��
2017/03/01,18:50,1.056,1.757,1.181,2.065,1.444,0.557,1.022,0.949,��,0.6,��
2017/03/01,19:00,1.059,1.756,1.180,2.064,1.445,0.557,1.022,0.951,���쓌,0.6,��
2017/03/01,19:10,1.058,1.755,1.179,2.065,1.444,0.557,1.024,0.950,�쓌,1.2,��
2017/03/01,19:20,1.059,1.755,1.179,2.065,1.441,0.557,1.024,0.950,��,1.5,��
2017/03/01,19:30,1.057,1.754,1.178,2.066,1.443,0.557,1.024,0.949,��쐼,2.3,��
2017/03/01,19:40,1.056,1.757,1.179,2.069,1.444,0.557,1.024,0.949,��쐼,2.9,��
2017/03/01,19:50,1.057,1.753,1.182,2.063,1.446,0.557,1.022,0.950,��쐼,2.5,��
2017/03/01,20:00,1.057,1.754,1.180,2.066,1.446,0.558,1.024,0.951,��쐼,1.7,��
2017/03/01,20:10,1.059,1.754,1.181,2.066,1.446,0.558,1.024,0.950,��쐼,1.1,��
2017/03/01,20:20,1.057,1.757,1.179,2.064,1.446,0.555,1.024,0.949,��쐼,2.2,��
2017/03/01,20:30,1.056,1.751,1.178,2.065,1.443,0.558,1.024,0.950,��,4.4,��
2017/03/01,20:40,1.057,1.753,1.181,2.065,1.445,0.557,1.023,0.950,��,3.7,��
2017/03/01,20:50,1.056,1.754,1.181,2.066,1.444,0.557,1.024,0.948,��,4.9,��
2017/03/01,21:00,1.058,1.753,1.179,2.065,1.446,0.558,1.021,0.949,��,7.5,��
2017/03/01,21:10,1.058,1.757,1.180,2.067,1.445,0.556,1.023,0.950,��,7.4,��
2017/03/01,21:20,1.059,1.751,1.182,2.064,1.444,0.557,1.024,0.948,��,6.9,��
2017/03/01,21:30,1.058,1.753,1.182,2.069,1.445,0.556,1.024,0.950,��,6.7,��
2017/03/01,21:40,1.061,1.757,1.181,2.066,1.444,0.556,1.022,0.948,��,6.2,��
2017/03/01,21:50,1.058,1.753,1.181,2.064,1.445,0.556,1.025,0.948,��,5.9,��
2017/03/01,22:00,1.056,1.752,1.179,2.067,1.443,0.556,1.023,0.949,��,6.0,��
2017/03/01,22:10,1.058,1.755,1.180,2.069,1.444,0.558,1.023,0.949,��,6.2,��
2017/03/01,22:20,1.056,1.753,1.181,2.069,1.444,0.560,1.022,0.951,��,5.5,��
2017/03/01,22:30,1.057,1.754,1.181,2.065,1.444,0.558,1.024,0.949,��,5.1,��
2017/03/01,22:40,1.061,1.753,1.183,2.065,1.446,0.559,1.023,0.951,��,5.6,��
2017/03/01,22:50,1.060,1.753,1.180,2.066,1.442,0.558,1.025,0.951,��,6.1,��
2017/03/01,23:00,1.059,1.755,1.182,2.065,1.443,0.560,1.023,0.949,��,5.7,��
2017/03/01,23:10,1.059,1.757,1.182,2.068,1.446,0.559,1.025,0.950,��,4.5,��
2017/03/01,23:20,1.059,1.756,1.178,2.064,1.445,0.559,1.023,0.947,��,5.0,��
2017/03/01,23:30,1.061,1.754,1.183,2.064,1.444,0.556,1.024,0.950,��쐼,4.8,��
2017/03/01,23:40,1.060,1.756,1.179,2.066,1.445,0.557,1.026,0.950,��,5.2,��
2017/03/01,23:50,1.062,1.756,1.181,2.064,1.445,0.557,1.024,0.949,��,6.6,��
